Location: Newark
(45.5167°N, 11.1667°E)
Time: 19:35:14
(UTC+00:00)

Explorer 7 - Pass Details

Date: 20 December 2019
Orbit: 485 x 679 km, 50.3° (Epoch: 19 January)

Event Time Altitude Azimuth Distance (km) Brightness Sun altitude
Rises 13:58:18 0° 275° (W) 2,948 11.0 11.5°
Reaches altitude 10° 14:00:40 10° 282° (WNW) 2,062 10.2 11.2°
Maximum altitude 14:05:18 48° 357° (N) 880 7.7 10.7°
Drops below altitude 10° 14:10:04 10° 71° (ENE) 2,117 9.3 10.2°
Sets 14:12:31 0° 77° (ENE) 3,034 10.1 9.9°
